Voltar ao catálogo

NOAA 16 DEB

AtivoSSO
NORAD 41376·DEBRIS·🇺🇸 United States

Lançado Sep 21, 2000 de Vandenberg Space Force Base

Loading…

Próximas Passagens (próximas 24 horas)

TLE

AtualizadoSource: Space-Track

Época: Sep 14, 2026, 12:54 UTC

1 41376U 00055JV  26257.53783484  .00002725  00000-0  98539-3 0  9998
2 41376  98.7344 357.1509 0015156  22.9403 337.2455 14.34275326552329

Acompanhe NOAA 16 DEB em tempo real com AllMySat

Download on the App Store